Home   Weather   Abbotsford   Past weeks

Flag for Canada Past Weather in Abbotsford, British Columbia, Canada — Yesterday and Last 2 Weeks

Now
45 °F

Overcast.


Feels Like: 43 °F
Forecast: 39 / 44 °F
Wind: 3 mph from South

Location: Abbotsford

Current Time: Jan 19, 2017 at 1:29:21 pm

Latest Report: Jan 19, 2017 at 1:00 pm


Visibility: 15 mi

Pressure: 29.46 "Hg

Humidity: 87%

Dew Point: 41 °F

Location of AbbotsfordLocation

Past Weather in Abbotsford — Graph

°F

Abbotsford Temperature Yesterday

Maximum temperature yesterday: 55 °F (at 1:25 pm)
Minimum temperature yesterday: 41 °F (at 3:00 am)
Average temperature yesterday: 45 °F

High & Low Weather Summary for the Past Weeks

 TemperatureHumidityPressure
High55 °F (Jan 18, 1:25 pm)100% (Jan 8, 8:00 pm)30.49 "Hg (Jan 8, 8:00 pm)
Low16 °F (Jan 12, 5:00 am)30% (Jan 10, 11:00 pm)29.23 "Hg (Jan 18, 9:00 pm)
Average33 °F76%29.91 "Hg
* Reported Jan 4 12:00 pm — Jan 19 12:00 pm, Abbotsford, Weather by CustomWeather, © 2017

Note: Actual official high and low records may vary slightly from our data, if they occured in-between our weather recording intervals... More about our weather records

Advertising

Abbotsford Weather History for the Previous 24 Hours

Scroll right to see more
 ConditionsComfort  
Time TempWeatherWind HumidityBarometerVisibility
12:00 pm
Thu, Jan 19
41 °FOvercast.7 mph100%29.46 "Hg15 mi
11:00 am43 °FSprinkles. Mostly cloudy.2 mph93%29.48 "Hg15 mi
10:00 am43 °FLight rain. Mostly cloudy.7 mph93%29.48 "Hg8 mi
9:00 am41 °FMostly cloudy.7 mph100%29.47 "Hg15 mi
8:00 am43 °FSprinkles. Mostly cloudy.2 mph93%29.46 "Hg15 mi
7:00 am46 °FSprinkles. Mostly cloudy.8 mph76%29.44 "Hg12 mi
6:04 am45 °FSprinkles. Mostly cloudy.5 mph87%29.43 "Hg12 mi
5:02 am45 °FSprinkles. Mostly cloudy.7 mph87%29.42 "Hg12 mi
4:00 am45 °FMostly cloudy.8 mph93%29.41 "Hg12 mi
3:00 am45 °FLight rain. Overcast.12 mph93%29.41 "Hg10 mi
2:00 am45 °FLight rain. Mostly cloudy.13 mph93%29.38 "Hg8 mi
1:00 am45 °FLight rain. Fog.21 mph93%29.34 "Hg5 mi
12:26 am45 °FLight rain. Fog.20 mph93%29.31 "Hg5 mi
12:00 am43 °FLight rain. Mostly cloudy.7 mph93%29.29 "Hg7 mi
11:33 pm
Wed, Jan 18
45 °FLight rain. Mostly cloudy.9 mph93%29.27 "Hg7 mi
11:17 pm43 °FRain. Partly cloudy.9 mph100%29.27 "Hg8 mi
10:17 pm43 °FLight rain. Fog.10 mph93%29.26 "Hg6 mi
10:00 pm43 °FRain. Fog.8 mph100%29.26 "Hg4 mi
9:30 pm43 °FRain. Fog.9 mph100%29.24 "Hg4 mi
9:00 pm43 °FLight rain. Fog.7 mph100%29.23 "Hg2 mi
8:00 pm43 °FRain. Fog.No wind100%29.25 "Hg2 mi
7:34 pm43 °FRain. Fog.6 mph100%29.24 "Hg2 mi
7:00 pm43 °FMostly cloudy.6 mph100%29.25 "Hg10 mi
6:23 pm43 °FRain. Mostly cloudy.3 mph100%29.26 "Hg10 mi
6:00 pm43 °FLight rain. Mostly cloudy.6 mph100%29.26 "Hg10 mi
5:00 pm43 °FMostly cloudy.6 mph100%29.27 "Hg12 mi
4:00 pm45 °FLight rain. More clouds than sun.7 mph93%29.28 "Hg10 mi
3:38 pm46 °FLight rain. Mostly cloudy.2 mph93%29.28 "Hg12 mi
3:00 pm54 °FMore clouds than sun.16 mph77%29.28 "Hg15 mi
2:00 pm54 °FCloudy.12 mph77%29.28 "Hg12 mi
1:25 pm55 °FMostly cloudy.22 mph72%29.28 "Hg15 mi
1:00 pm54 °FLight rain. Mostly cloudy.9 mph77%29.29 "Hg15 mi
Weather by CustomWeather, © 2017

See weather overviewHow to use our weather pages